Location: Unspecified
(64.9000°N, 0.0000°E)
Time: 04:48:47
(UTC+00:00)

Transit 2A Rocket - Pass Details

Date: 26 June 2019
Orbit: 588 x 915 km, 66.7° (Epoch: 23 July)

Event Time Altitude Azimuth Distance (km) Brightness Sun altitude
Rises 11:06:54 0° 230° (SW) 3,529 8.6 47.5°
Reaches altitude 10° 11:09:29 10° 228° (SW) 2,569 8.1 47.6°
Maximum altitude 11:15:26 70° 147° (SSE) 914 6.9 47.7°
Drops below altitude 10° 11:20:59 10° 64° (ENE) 2,403 7.6 47.9°
Sets 11:23:20 0° 63° (ENE) 3,287 8.2 48.0°
